[[{"header":{"parameterUnit":"m.s-1","parameterCategory":1,"la1":30.2991,"la2":30.254,"lo1":-89.0895,"lo2":-89.0444,"dy":0.0017,"dx":0.0017,"nx":28,"ny":28,"refTime":"2024-05-08T09:00:00:Z","depth":0,"parameterNumber":2,"parameterNumberName":"U-component_of_WINDS"},"data":[0,0,0,0,0,0,0,0,0,0,0,0,0,0,0,0,0,0,0,0,0,0,0,0,0,0,0,0,0,0,0,0,0,0,0,0,0,0,0,0,0,0,0,0,0,0,0,0,0,0,0,0,0,0,0,0,0,0,-0.7308,-0.7308,0,-0.7265,-0.7264,-0.7264,-0.7242,-0.7242,-0.7242,-0.7242,-0.7197,-0.7196,-0.7195,0,0,0,0,0,0,0,0,0,0,0,0,0,-0.7373,-0.7372,-0.7308,-0.7308,-0.7307,-0.7265,-0.7264,-0.7263,-0.7242,-0.7242,-0.7242,-0.7242,-0.7197,-0.7196,-0.7194,0,0,0,0,0,0,0,0,0,0,0,0,0,-0.7339,-0.7372,-0.7308,-0.7291,-0.7289,-0.7265,-0.7264,-0.7263,-0.7242,-0.7242,-0.7242,-0.7242,-0.7198,-0.7196,-0.7194,-0.7183,0,0,-0.7189,-0.7188,0,0,0,0,0,0,0,0,-0.7341,-0.7337,-0.7294,-0.7292,-0.729,-0.7259,-0.7271,-0.7236,-0.7242,-0.726,-0.7242,-0.7242,-0.7217,-0.7214,-0.7206,-0.7181,-0.7179,-0.7189,-0.7188,-0.7187,-0.7186,0,0,0,0,0,0,0,-0.7343,-0.7338,-0.7291,-0.7294,-0.7291,-0.7286,-0.7281,-0.7264,-0.7239,-0.7258,-0.7257,-0.7252,-0.7216,-0.7208,-0.7205,-0.7179,-0.7189,-0.7187,-0.7186,-0.7185,-0.7144,-0.7144,0,0,0,0,0,0,-0.7348,-0.734,-0.7292,-0.729,-0.7316,-0.7285,-0.7279,-0.7269,-0.7239,-0.7235,-0.7252,-0.7251,-0.7211,-0.7207,-0.7203,-0.7189,-0.7187,-0.7185,-0.7184,-0.7144,-0.7144,-0.7144,0,0,0,0,0,0,-0.735,-0.7344,-0.7294,-0.7315,-0.7308,-0.7284,-0.7272,-0.7268,-0.7259,-0.7234,-0.723,-0.7248,-0.7211,-0.7205,-0.7189,-0.7187,-0.7184,-0.7183,-0.7144,-0.7144,-0.7144,-0.716,0,0,0,0,0,0,-0.7352,-0.7345,-0.734,-0.7315,-0.7307,-0.728,-0.7272,-0.7267,-0.7256,-0.7255,-0.7229,-0.7225,-0.721,-0.7191,-0.7187,-0.7184,-0.7181,-0.7144,-0.7144,-0.7144,-0.7159,-0.716,-0.7161,0,0,0,0,0,-0.7354,-0.7346,-0.734,-0.7334,-0.73,-0.728,-0.7276,-0.7259,-0.7256,-0.7251,-0.7236,-0.7226,-0.7188,-0.719,-0.7185,-0.7181,-0.7144,-0.7144,-0.7144,-0.7159,-0.716,-0.7161,0,0,0,0,0,0,-0.7372,-0.7342,-0.7335,-0.7319,-0.7302,-0.7277,-0.727,-0.7261,-0.7244,-0.7243,-0.7223,-0.7218,-0.7203,-0.719,-0.7193,-0.717,-0.7165,-0.7164,-0.7178,-0.7179,-0.718,-0.7183,-0.718,0,0,0,0,0,-0.7374,-0.736,-0.7335,-0.7323,-0.7315,-0.7294,-0.7285,-0.7273,-0.7255,-0.7248,-0.7231,-0.7214,-0.7198,-0.7188,-0.7172,-0.7158,-0.7152,-0.7153,-0.7154,-0.7155,-0.7154,-0.7146,-0.7146,-0.7144,-0.7144,-0.7144,0,0,-0.7378,-0.736,-0.7352,-0.7326,-0.7312,-0.7298,-0.7288,-0.7274,-0.7263,-0.7246,-0.7229,-0.7216,-0.7196,-0.718,-0.7172,-0.7169,-0.7154,-0.7155,-0.7156,-0.7154,-0.7146,-0.7146,-0.7146,-0.7144,-0.7144,-0.7144,0,0,-0.7378,-0.7363,-0.7351,-0.7338,-0.7316,-0.7303,-0.73,-0.7276,-0.7267,-0.725,-0.7237,-0.7224,-0.7197,-0.7184,-0.7173,-0.717,-0.716,-0.7165,-0.7169,-0.7162,-0.7162,-0.7162,-0.7161,-0.7161,-0.7164,-0.7164,-0.7164,0,-0.7385,-0.7363,-0.7346,-0.7333,-0.7322,-0.7306,-0.7295,-0.7282,-0.7257,-0.725,-0.7247,-0.7214,-0.7199,-0.718,-0.7179,-0.7171,-0.7168,-0.7167,-0.7164,-0.7163,-0.7163,-0.7162,-0.7161,-0.7165,-0.7165,-0.7165,-0.7165,0,-0.7374,-0.7359,-0.7352,-0.7329,-0.7317,-0.7305,-0.7286,-0.7277,-0.7267,-0.7254,-0.7237,-0.7219,-0.7199,-0.7194,-0.7184,-0.7175,-0.7173,-0.7167,-0.7162,-0.7164,-0.7163,-0.7162,-0.7166,-0.7166,-0.7166,-0.7166,0,0,-0.7382,-0.735,-0.7348,-0.7338,-0.7314,-0.7302,-0.729,-0.7271,-0.7263,-0.7247,-0.7236,-0.7214,-0.7209,-0.7197,-0.7186,-0.7179,-0.7178,-0.7174,-0.7173,-0.7175,-0.7166,-0.7171,-0.717,-0.7172,-0.7172,-0.7171,-0.7168,0,-0.7379,-0.7355,-0.734,-0.7322,-0.7309,-0.7294,-0.7283,-0.7268,-0.7255,-0.7243,-0.7229,-0.7214,-0.7208,-0.7201,-0.7194,-0.7179,-0.7176,-0.718,-0.7161,-0.7161,-0.7166,-0.7169,-0.7174,-0.7171,-0.7167,-0.7167,-0.7167,0,-0.7371,-0.7355,-0.7336,-0.7315,-0.7308,-0.7299,-0.7281,-0.7269,-0.7251,-0.7243,-0.7231,-0.7219,-0.7206,-0.7202,-0.7184,-0.7187,-0.7179,-0.717,-0.717,-0.7167,-0.7163,-0.7166,-0.717,-0.7169,-0.7166,-0.7166,-0.7166,0,-0.7379,-0.7353,-0.7339,-0.733,-0.7305,-0.7298,-0.7287,-0.727,-0.726,-0.7245,-0.7238,-0.7221,-0.7212,-0.72,-0.7184,-0.7183,-0.7167,-0.7162,-0.716,-0.716,-0.7156,-0.7157,-0.7158,-0.7152,-0.7152,-0.7152,-0.7152,0,-0.7376,-0.7365,-0.7342,-0.7333,-0.732,-0.7304,-0.7292,-0.728,-0.7265,-0.7254,-0.724,-0.723,-0.7211,-0.7198,-0.7186,-0.7173,-0.7169,-0.7162,-0.7159,-0.7163,-0.7163,-0.7156,-0.7156,-0.7152,-0.7152,-0.7152,-0.7152,0,-0.7383,-0.7367,-0.735,-0.7328,-0.7322,-0.7314,-0.7295,-0.7286,-0.7273,-0.7259,-0.7255,-0.7236,-0.722,-0.7204,-0.7183,-0.7176,-0.7163,-0.7158,-0.7168,-0.7167,-0.7165,-0.7165,-0.7161,-0.716,-0.7155,-0.7155,-0.7155,0,-0.7382,-0.7373,-0.735,-0.7341,-0.7331,-0.7317,-0.7307,-0.7291,-0.7281,-0.7261,-0.7255,-0.7239,-0.7225,-0.7202,-0.7186,-0.717,-0.7165,-0.7165,-0.7162,-0.7167,-0.7165,-0.7165,-0.7165,-0.7165,-0.7166,-0.7166,-0.7166,0,-0.7382,-0.7374,-0.736,-0.7344,-0.7332,-0.7319,-0.7304,-0.7298,-0.7279,-0.7269,-0.7254,-0.7243,-0.7222,-0.7207,-0.7189,-0.7178,-0.7169,-0.7167,-0.7165,-0.7169,-0.7175,-0.7172,-0.717,-0.7167,-0.7167,-0.7167,-0.7167,-0.7167,-0.7384,-0.7376,-0.7358,-0.7344,-0.7331,-0.7319,-0.7309,-0.7296,-0.7283,-0.7265,-0.7256,-0.7241,-0.7224,-0.72,-0.719,-0.7178,-0.7175,-0.7173,-0.7172,-0.7172,-0.7173,-0.7178,-0.7174,-0.7174,-0.7174,-0.7174,-0.7174,0,-0.7383,-0.7372,-0.7358,-0.7339,-0.7327,-0.732,-0.7304,-0.7295,-0.7282,-0.7267,-0.7254,-0.7237,-0.7222,-0.7206,-0.719,-0.7183,-0.7179,-0.718,-0.718,-0.7177,-0.7176,-0.7179,-0.7184,-0.7184,-0.7184,-0.7184,-0.7184,-0.7184,-0.7381,-0.7367,-0.7358,-0.7338,-0.7326,-0.7311,-0.7303,-0.7291,-0.728,-0.7261,-0.7249,-0.7238,-0.7223,-0.7206,-0.7192,-0.7188,-0.7183,-0.7185,-0.7179,-0.7178,-0.7177,-0.7177,-0.7179,-0.7184,-0.7184,-0.7181,-0.7181,-0.7181]},{"header":{"parameterUnit":"m.s-1","parameterCategory":1,"la1":30.2991,"la2":30.254,"lo1":-89.0895,"lo2":-89.0444,"dy":0.0017,"dx":0.0017,"nx":28,"ny":28,"refTime":"2024-05-08T09:00:00:Z","depth":0,"parameterNumber":3,"parameterNumberName":"V-component_of_WINDS"},"data":[0,0,0,0,0,0,0,0,0,0,0,0,0,0,0,0,0,0,0,0,0,0,0,0,0,0,0,0,0,0,0,0,0,0,0,0,0,0,0,0,0,0,0,0,0,0,0,0,0,0,0,0,0,0,0,0,0,0,6.148,6.1481,0,6.1591,6.1592,6.1593,6.1591,6.159,6.1588,6.1587,6.1692,6.1697,6.1701,0,0,0,0,0,0,0,0,0,0,0,0,0,6.126,6.1264,6.148,6.1482,6.1483,6.1591,6.1592,6.1594,6.1591,6.159,6.1588,6.1586,6.1691,6.1696,6.1701,0,0,0,0,0,0,0,0,0,0,0,0,0,6.1362,6.1266,6.148,6.1495,6.1497,6.1591,6.1592,6.1594,6.1592,6.1589,6.1587,6.1585,6.1689,6.1696,6.1702,6.1785,0,0,6.1721,6.1724,0,0,0,0,0,0,0,0,6.1356,6.137,6.1491,6.1494,6.1497,6.1575,6.1554,6.1658,6.1592,6.1556,6.1587,6.1584,6.1655,6.1664,6.1689,6.179,6.1794,6.1722,6.1725,6.1728,6.173,0,0,0,0,0,0,0,6.1349,6.1365,6.1524,6.1493,6.1497,6.1494,6.1506,6.1573,6.1616,6.1559,6.1559,6.1572,6.1656,6.1683,6.1692,6.1796,6.1721,6.1727,6.1731,6.1733,6.1973,6.1975,0,0,0,0,0,0,6.134,6.1359,6.152,6.1527,6.142,6.15,6.1513,6.1552,6.1615,6.1623,6.1574,6.1572,6.1673,6.1684,6.1695,6.1799,6.1728,6.1734,6.1737,6.197,6.1973,6.1976,0,0,0,0,0,0,6.1335,6.1354,6.1516,6.1443,6.1464,6.1506,6.155,6.1555,6.1583,6.1627,6.1634,6.1595,6.1672,6.1686,6.1764,6.1802,6.1737,6.1742,6.1967,6.1971,6.1975,6.2005,0,0,0,0,0,0,6.1329,6.1353,6.1386,6.1444,6.1468,6.1584,6.1552,6.1559,6.1595,6.1593,6.1648,6.1655,6.1671,6.1754,6.177,6.181,6.1747,6.1964,6.1969,6.1973,6.2001,6.201,6.2017,0,0,0,0,0,6.1321,6.1388,6.1388,6.1407,6.1511,6.1587,6.16,6.1619,6.1598,6.1631,6.166,6.1653,6.1795,6.1762,6.178,6.1822,6.1961,6.1967,6.1973,6.1997,6.2008,6.2017,0,0,0,0,0,0,6.1329,6.1396,6.1396,6.1484,6.153,6.1586,6.1628,6.163,6.168,6.1676,6.1696,6.1708,6.1786,6.1811,6.1773,6.1907,6.1875,6.1885,6.1888,6.1898,6.1906,6.1899,6.1753,0,0,0,0,0,6.1342,6.1401,6.1454,6.1527,6.155,6.1586,6.1619,6.1631,6.1678,6.1696,6.1731,6.1775,6.183,6.1865,6.1918,6.2004,6.2017,6.2042,6.205,6.2056,6.2065,6.2114,6.2127,6.1995,6.1995,6.1995,0,0,6.1368,6.1411,6.1446,6.153,6.1567,6.1625,6.1602,6.1664,6.1707,6.1705,6.1782,6.1808,6.1859,6.1942,6.198,6.1965,6.2104,6.2064,6.2069,6.2074,6.2122,6.2134,6.2145,6.1999,6.1998,6.1998,0,0,6.1445,6.1484,6.155,6.1589,6.1646,6.167,6.1685,6.1742,6.1761,6.1838,6.1839,6.1889,6.1982,6.202,6.205,6.2145,6.2141,6.2161,6.2203,6.2251,6.2262,6.2271,6.2306,6.2318,6.2168,6.2169,6.2169,0,6.1469,6.1561,6.1583,6.1647,6.1684,6.1688,6.1755,6.179,6.186,6.1885,6.1868,6.1988,6.2021,6.2114,6.2138,6.2162,6.218,6.2155,6.2259,6.2268,6.2277,6.2311,6.2324,6.2171,6.2171,6.217,6.217,0,6.1588,6.1651,6.1697,6.177,6.1811,6.1876,6.1907,6.1946,6.1954,6.1979,6.2058,6.21,6.2162,6.2184,6.2191,6.2279,6.2268,6.2255,6.2224,6.2292,6.2324,6.2337,6.2174,6.2173,6.2172,6.2172,0,0,6.1673,6.176,6.1776,6.181,6.1875,6.1923,6.1988,6.2052,6.2086,6.2134,6.2189,6.2269,6.2258,6.2293,6.2304,6.2346,6.2421,6.2328,6.233,6.2345,6.2521,6.2532,6.2547,6.2419,6.2421,6.2423,6.2518,0,6.1759,6.1878,6.1901,6.2003,6.2062,6.2067,6.2124,6.2169,6.2194,6.2246,6.2272,6.233,6.231,6.2332,6.2374,6.2403,6.2456,6.2396,6.2469,6.2472,6.2458,6.2563,6.2575,6.2662,6.253,6.2532,6.2534,0,6.1875,6.1931,6.204,6.21,6.2125,6.2176,6.2238,6.2288,6.2338,6.2354,6.2395,6.2402,6.2468,6.2434,6.2526,6.2484,6.2515,6.2534,6.2538,6.2546,6.2508,6.2576,6.269,6.2704,6.2553,6.2552,6.255,0,6.1928,6.203,6.211,6.2138,6.2209,6.2245,6.2275,6.2325,6.2363,6.2415,6.244,6.2499,6.2531,6.2575,6.2598,6.2571,6.2689,6.2656,6.2703,6.2703,6.2728,6.2727,6.285,6.2746,6.2746,6.2746,6.2745,0,6.2023,6.209,6.2136,6.2184,6.226,6.2285,6.2358,6.2387,6.2432,6.2485,6.2492,6.2541,6.2568,6.2621,6.2638,6.2713,6.2726,6.274,6.2744,6.2741,6.2739,6.2762,6.2757,6.2749,6.2748,6.2748,6.2747,0,6.2095,6.2129,6.2216,6.2277,6.2294,6.2347,6.2399,6.2446,6.2471,6.2539,6.2556,6.2596,6.2659,6.2687,6.2763,6.2775,6.2861,6.2859,6.2845,6.2846,6.2893,6.2889,6.3037,6.3058,6.2938,6.2939,6.294,0,6.2154,6.2207,6.2275,6.2313,6.2346,6.2406,6.2446,6.2472,6.2513,6.2577,6.2616,6.268,6.2733,6.2834,6.2868,6.2927,6.2928,6.2976,6.2937,6.2933,6.2931,6.2928,6.2934,6.2983,6.2985,6.2986,6.2986,0,6.2255,6.227,6.2329,6.2394,6.2442,6.2494,6.2544,6.2574,6.2608,6.2653,6.272,6.2761,6.2842,6.2906,6.2967,6.2996,6.2998,6.2999,6.3013,6.301,6.3001,6.3008,6.2866,6.2995,6.2994,6.2994,6.2993,6.2993,6.2324,6.2372,6.2428,6.2494,6.2535,6.2583,6.2631,6.2665,6.2722,6.2792,6.2803,6.2874,6.2925,6.3008,6.304,6.3095,6.3083,6.3103,6.3109,6.3114,6.3118,6.2991,6.3106,6.3106,6.3106,6.3106,6.3105,0,6.2427,6.2464,6.2525,6.2597,6.2649,6.2648,6.2704,6.2746,6.281,6.2859,6.2912,6.2989,6.3052,6.3092,6.3155,6.3191,6.3193,6.3207,6.3205,6.3212,6.3124,6.3107,6.3205,6.3205,6.3205,6.3205,6.3205,6.3205,6.2487,6.2569,6.2591,6.2693,6.2729,6.2802,6.2834,6.2878,6.2917,6.3005,6.3058,6.3085,6.313,6.3196,6.3253,6.3264,6.3287,6.3302,6.3311,6.3228,6.3218,6.3208,6.3192,6.3306,6.3306,6.3395,6.3395,6.3396]}]]